User: anonymous   Login
Location: Grossmotten
(48.5500°N, 15.3833°E)
Time: 21:10:58
(UTC+00:00)
Language:

Cosmos 2346 Rocket - Orbit

View from above orbital plane
View from above orbital plane
View from above satellite
View from above satellite

Ground track
Ground track

The orbit data is extracted from the following two-line orbital elements,

1 24955U 97052C   20027.19129627 +.00000008 +00000-0 -68862-5 0  9990
2 24955 082.9204 275.0217 0029142 325.3885 034.5376 13.81548192126243
Epoch (UTC): 27 January 2020 04:35:27
Eccentricity: 0.0029142
inclination: 82.9204°
perigee height: 937 km
apogee height: 980 km
right ascension of ascending node: 275.0217°
argument of perigee: 325.3885°
revolutions per day: 13.81548192
mean anomaly at epoch: 34.5376°
orbit number at epoch: 12624

The dashed part of the orbit path shows where the satellite is in the earth's shadow,  

DLR